KG5VSR Weather Reports


time (UTC)temp
C
wind
direction
speed
KPH
gust
KPH
rain 1hr
cm
rain 24hr
cm
rain mn
cm
humidity
%
barometer
mb
20260506165258 12 347 1.6 3.2 0.00 0.61 0.61 98 1014.2
20260506162255 12 306 1.6 1.6 0.00 0.61 0.61 98 1015.1
20260506155251 12 5 9.7 16.1 1.37 0.61 0.61 96 1013.9
20260506152248 12 279 0.0 0.0 1.98 0.33 0.33 92 1016.7
20260506145247 12 59 1.6 3.2 0.00 0.00 0.00 88 1015.3
20260506142244 12 325 0.0 1.6 0.00 0.00 0.00 88 1015.0
20260506135239 12 352 1.6 3.2 0.00 0.00 0.00 88 1014.1
20260506132238 12 96 3.2 4.8 0.00 0.00 0.00 86 1013.6
20260506125233 12 1 3.2 3.2 0.00 0.00 0.00 85 1013.7
20260506122229 13 348 6.4 8.0 0.00 0.00 0.00 83 1013.3
20260506115226 13 318 8.0 14.5 0.00 0.00 0.00 83 1013.0
20260506112222 13 295 4.8 4.8 0.00 0.00 0.00 81 1012.3
20260506105223 14 25 0.0 0.0 0.00 0.00 0.00 81 1011.6
20260506102219 15 326 1.6 1.6 0.00 0.00 0.00 81 1011.1
20260506095214 15 322 0.0 0.0 0.00 0.00 0.00 80 1010.8
20260506092211 15 357 1.6 1.6 0.00 0.00 0.00 80 1010.8
20260506085211 15 339 3.2 3.2 0.00 0.00 0.00 81 1010.4
20260506082208 16 321 1.6 3.2 0.00 0.00 0.00 81 1009.9
20260506072159 16 291 0.0 1.6 0.00 0.00 0.00 81 1010.2
20260506062154 16 333 4.8 4.8 0.00 0.00 0.00 82 1010.1
20260506042148 20 333 4.8 8.0 0.00 0.81 0.81 81 1009.5
20260506035149 21 333 3.2 3.2 0.00 0.81 0.81 81 1009.0
20260506032148 21 346 4.8 8.0 0.00 0.81 0.81 81 1008.7
20260506025148 22 347 0.0 1.6 0.00 0.81 0.81 81 1007.8
20260506022147 20 137 0.0 1.6 0.00 0.81 0.81 95 1006.9
20260506015143 20 5 0.0 0.0 0.00 0.81 0.81 98 1006.5
20260506012141 21 337 0.0 1.6 0.00 0.81 0.81 99 1006.4
20260506005136 24 319 0.0 0.0 0.00 0.81 0.81 99 1005.3
20260506002131 23 321 0.0 0.0 0.18 0.81 0.81 98 1005.4
20260505235131 28 310 1.6 1.6 0.00 0.00 0.00 76 1004.5
20260505232131 30 189 4.8 8.0 0.00 0.00 0.00 73 1004.3
20260505225131 31 204 6.4 9.7 0.00 0.00 0.00 69 1003.9
20260505222128 31 151 4.8 8.0 0.00 0.00 0.00 66 1003.7
20260505215125 32 186 4.8 4.8 0.00 0.00 0.00 65 1004.0
20260505212124 32 163 4.8 9.7 0.00 0.00 0.00 62 1004.2
20260505205125 33 154 3.2 8.0 0.00 0.00 0.00 57 1004.6
20260505202122 32 146 1.6 3.2 0.00 0.00 0.00 60 1004.9
20260505195123 31 289 3.2 3.2 0.00 0.00 0.00 65 1005.3
20260505192123 30 182 3.2 4.8 0.00 0.00 0.00 70 1005.1
20260505185120 30 199 3.2 3.2 0.00 0.00 0.00 72 1005.5
20260505182118 28 109 8.0 11.3 0.00 0.00 0.00 74 1005.7
20260505175115 28 134 4.8 4.8 0.00 0.00 0.00 73 1006.0
20260505172114 28 195 8.0 9.7 0.00 0.00 0.00 74 1005.9